Location: Praha
(50.0830°N, 14.4670°E)
Time: 14:40:19
(UTC+02:00)

ISS - Pass Details

Date: 03 May 2019
Orbit: 408 x 410 km, 51.6° (Epoch: 18 April)

Event Time Altitude Azimuth Distance (km) Brightness Sun altitude
Exits shadow 04:25:30 13° 202° (SSW) 1,309 -1.8 -10.3°
Maximum altitude 04:27:54 27° 146° (SE) 813 -2.4 -10.0°
Drops below altitude 10° 04:30:46 10° 86° (E) 1,475 -0.1 -9.6°
Sets 04:33:02 0° 74° (ENE) 2,340 1.5 -9.3°
